sat.trackr.live / text

‹ back to catalog

STARLINK-4019

NORAD 52598 · 2022-052A

PAYLOAD ACTIVE UNKNOWN

§ Identity

Operator
Country
US
Launch date
2022-05-14
Launch site
AFETR
Launch vehicle
Mass (kg)
RCS (m²)

Purposes: comms

External: N2YO · Heavens-Above · Gunter

§ Orbital elements

Epoch: 2026-05-24T20:52:53.916672Z

Period
95.44 min
Inclination
53.2137°
Eccentricity
0.0001323
Mean motion
15.08833266 rev/d
Perigee alt
538.8 km
Apogee alt
540.7 km
Semi-major
6,917.9 km
B*
1.1948e-4
RAAN
302.1332°
Arg perigee
80.3086°
Mean anomaly
279.8056°
Rev number
22,308

§ Raw data

STARLINK-40191 52598U 22052A   26144.87006848  .00001614  00000+0  11948-3 0  99952 52598  53.2137 302.1332 0001323  80.3086 279.8056 15.08833266223084

JSON: /api/v1/satellites/52598 · /tle

For live sub-satellite position, see the globe view (requires WebGL).

§ Visibility from observer

Set your observer location to see the next 7 days of passes ≥ 10°. The values pass through the URL so the page stays shareable.

No JS? Fill the form by hand. The geolocation button needs JavaScript.